Regional Weather Roundup
Issued by NWS Wilmington, NC

Current Version | Previous Version | Text Only | Print | Product List | Glossary On
Versions: 1 2 3 4 5 6 7 8 9 10 11 12 13 14 15 16 17 18 19 20 21 22 23 24 25 26 27
000
ASUS42 KILM 271113
RWRILM
RWRILM
REGIONAL HOURLY WEATHER ROUNDUP
NATIONAL WEATHER SERVICE WILMINGTON NC
700 AM EDT FRI MAY 27 2016

NOTE: "FAIR" INDICATES FEW OR NO CLOUDS BELOW 12,000 FEET WITH NO
SIGNIFICANT WEATHER AND/OR OBSTRUCTIONS TO VISIBILITY.

...............WFO WILMINGTON COUNTY WARNING AREA...............

......COASTAL NC AND SC COUNTIES......

CITY           SKY/WX    TMP DP  RH WIND       PRES   REMARKS
WILMINGTON     SUNNY     65  63  93 CALM      30.16R
N MYRTLE BEACH CLEAR     65  63  93 NE3       30.15R
MYRTLE BEACH   PTCLDY    66  55  68 CALM      30.16R

......INLAND NC AND SC COUNTIES.......

CITY           SKY/WX    TMP DP  RH WIND       PRES   REMARKS
LUMBERTON      PTCLDY    66  64  93 CALM      30.15R
ELIZABETHTOWN  PTCLDY    64  64 100 CALM      30.15S
WHITEVILLE     CLEAR     62  61  95 CALM      30.15R
FLORENCE       CLOUDY    65  62  90 SE3       30.14S
DARLINGTON     PTCLDY    64  62  93 CALM      30.15R
KINGSTREE      CLOUDY    63  61  94 CALM      30.14S
HARTSVILLE     FAIR      63  59  88 CALM      30.14R
BENNETTSVILLE  CLOUDY    68  64  88 CALM      30.14R
CONWAY         FAIR      59  57  94 CALM      30.15R
GEORGETOWN     FAIR      59  57  94 CALM      30.15R
MARION         MOCLDY    64  63  94 CALM      30.15R

....................REST OF NORTH CAROLINA......................

.........EASTERN NC.........

CITY           SKY/WX    TMP DP  RH WIND       PRES   REMARKS
CAPE HATTERAS  SUNNY     69  65  86 CALM      30.19R
JACKSONVILLE   SUNNY     62  61  96 CALM      30.17S
MOREHEAD CITY  SUNNY     66  65  96 CALM      30.17R
KENANSVILLE    PTSUNNY   62  61  97 CALM      30.17S
NEW BERN       SUNNY     63  60  90 CALM      30.18R
ELIZABETH CITY MOSUNNY   69  63  81 CALM      30.17R

.........CENTRAL NC.........

CITY           SKY/WX    TMP DP  RH WIND       PRES   REMARKS
RALEIGH DURHAM PTCLDY    68  61  78 SW6       30.15R
ROCKY MOUNT    SUNNY     68  65  90 S3        30.15S
ROANOKE RAPIDS NOT AVBL
FAYETTEVILLE   CLEAR     68  64  87 SE6       30.14R
HOFFMAN        PTCLDY    65  62  89 S1        30.14R

.........WESTERN NC.........

CITY           SKY/WX    TMP DP  RH WIND       PRES   REMARKS
CHARLOTTE      PTCLDY    66  59  78 S3        30.15R
GREENSBORO     PTCLDY    66  61  84 SW7       30.13R
HICKORY        NOT AVBL
BOONE          NOT AVBL
ASHEVILLE      NOT AVBL

.....................REST OF SOUTH CAROLINA.....................

.........EASTERN SC.........

CITY           SKY/WX    TMP DP  RH WIND       PRES   REMARKS
CHARLESTON     PTCLDY    66  63  90 NE3       30.13R
BEAUFORT MCAS  CLEAR     66  64  93 CALM      30.13R
HILTON HEAD    PTCLDY    63  61  94 CALM      30.13R

.........CENTRAL SC.........

CITY           SKY/WX    TMP DP  RH WIND       PRES   REMARKS
COLUMBIA       MOCLDY    67  61  81 E3        30.13R
ORANGEBURG     CLEAR     63  61  93 CALM      30.14R
SUMTER SHAW    CLEAR     63  60  91 N3        30.12R

.........WESTERN SC.........

CITY           SKY/WX    TMP DP  RH WIND       PRES   REMARKS
GREENVILLE     NOT AVBL
ROCK HILL      CLEAR     64  60  87 S3        30.15R
ANDERSON       CLEAR     65  62  90 CALM      30.14R
CLEMSON        NOT AVBL
GREENWOOD      MOCLDY    62  58  86 CALM      30.16R


...................COASTAL AND OFFSHORE REPORTS..................

................LOCAL PIERS AND NC RESERVE................


STATION/POSITION TIME  SKY/WX   TEMP    WIND        PRES    VSBY
                                AIR SEA DIR/SP/G
                 (UTC)          (F)     (DEG/KT/KT) (MB)    (MI)
JOHNY MRCER PIER 1000            67 74  320/  6/  7 1019.9R
NC RESRV MASNBRO NOT AVBL
OCEAN CREST PIER NOT AVBL
SPRINGMAID  PIER 1000            67 74  300/  6/  6 1020.2R


................COASTAL AND OFFSHORE BUOYS................


STATION/POSITION TIME  SKY/WX   TEMP    WIND        PRES    VSBY
                                AIR SEA DIR/SP/G
                 (UTC)          (F)     (DEG/KT/KT) (MB)    (MI)
DIMNDSHOAL 41025 1050            77 80  170/  6/  8 1022.0R
WVE H/P(F/S)=  2/ 8 SWL H/P/D(F/S/D)=  2/120/ 8

CAPE LOOKOUT     1100            73      90/  1/  2 1021.3R
ONSLOW BAY 41036 NOT AVBL
ONSLOW BAY 41064 1008            75 74  200/  2/  4 1021.3R
ONSLOW BAY 41159 1055               74                N/A
WVE H/P(F/S)=  2/ 8

5SE WRITBC 41038 1008            73 73   90/  2/  4 1021.6R
MASNBO INL 41110 1006               73                N/A
WVE H/P(F/S)=  2/ 8

WILM HARBR 41108 1056               75                N/A
WVE H/P(F/S)=  2/ 4

27SE WRITB 41037 1008            75 74   90/  2/  4 1020.3R
FRYING PAN 41013 1000            76 75   40/  4/  6 1020.4R
SUNST NRSH 41024 1008            69 74   30/  6/ 10 1020.3R
CAPRS NRSH 41029 1008            76 76  110/  4/  6 1019.9R
EDISTO     41004 1050            77 76   40/  4/  6 1019.9R
WVE H/P(F/S)=  2/ 5 SWL H/P/D(F/S/D)=  2/ 5



..........OFFSHORE BUOYS BEYOND 100 NM OFFSHORE...........
.....IN A TRIANGLE---HAT TO BERMUDA TO BAHAMAS TO HAT.....


STATION/POSITION TIME  SKY/WX   TEMP    WIND        PRES    VSBY
                                AIR SEA DIR/SP/G
                 (UTC)          (F)     (DEG/KT/KT) (MB)    (MI)
150E HAT   41001 NOT AVBL
W BERMUDA  41048 1050            75 76   80/ 14/ 17 1020.1R
WVE H/P(F/S)=  5/ 8 SWL H/P/D(F/S/D)=  3/140/ 8

ATLANTIC S 41049 1050            78 78  110/ 14/ 17 1020.2R
WVE H/P(F/S)=  5/ 8 SWL H/P/D(F/S/D)=  3/100/ 8

E BAHAMAS  41046 1000            80 81  130/ 14/ 17 1015.3R
NE BAHAMAS 41047 1000            77 79  170/ 19/ 25 1013.5R
120E CANVRL41010 1020            76 78   60/ 12/ 14 1016.6R

END




USA.gov is the U.S. government's official web portal to all federal, state and local government web resources and services.